SPOC (46921 NORAD) Tracking and Keplerian Element Data

This shows tracking and keplerian element data for the satellite.

Feedback or suggestion? Click here.




ElementValue
Catalog46921
NameSPOC
Epoch Orbit1103
Epoch Day15.17061093
Epoch Year2021
RAAN18.7079
Inclination51.6438
Eccentricity0.000132
Argument of Perigee210.1633
Mean Anonmoly149.9281
Mean Motion15.514857
Decay Rate5.18E-05
L11 46921U 98067RR 21015.17061093 .00005180 00000-0 93720-4 0 9997
L22 46921 51.6438 18.7079 0001320 210.1633 149.9281 15.51485700 11030

Live tracking and technical data element details for SPOC (NORAD 46921). SPOC can be tracked NOW for your location showing map with azimuth and elevation plus other details from your city location.

Track the satellite on the map from your city or location and see movement details for azimuth, elevation, latitude, longitude, range, height, and movement on the map or in text.







IsCatalogInMostPopularTable: catalog: 46921, numindb: 28
Update: records affected: 1



GetName: 46921 SPOC

Hit Count: updated at: Fri, 15 Jan 2021 22:58:43 GMT